Year,Month,Day,Hour,Minute,Value (Times are PST for temperature in C)
2018,06,18,00,00,24.90
2018,06,18,00,01,24.80
2018,06,18,00,02,24.70
2018,06,18,00,03,24.60
2018,06,18,00,04,24.50
2018,06,18,00,05,24.50
2018,06,18,00,06,24.40
2018,06,18,00,07,24.30
2018,06,18,00,08,24.30
2018,06,18,00,09,24.30
2018,06,18,00,10,24.20
2018,06,18,00,11,24.20
2018,06,18,00,12,24.10
2018,06,18,00,13,24.10
2018,06,18,00,14,24.10
2018,06,18,00,15,24.00
2018,06,18,00,16,24.00
2018,06,18,00,17,24.00
2018,06,18,00,18,24.00
2018,06,18,00,19,24.00
2018,06,18,00,20,23.90
2018,06,18,00,21,23.90
2018,06,18,00,22,23.90
2018,06,18,00,23,23.90
2018,06,18,00,24,23.90
2018,06,18,00,25,23.90
2018,06,18,00,26,23.80
2018,06,18,00,27,23.80
2018,06,18,00,28,23.80
2018,06,18,00,29,23.80
2018,06,18,00,30,23.80
2018,06,18,00,31,23.80
2018,06,18,00,32,23.80
2018,06,18,00,33,23.80
2018,06,18,00,34,23.80
2018,06,18,00,35,23.80
2018,06,18,00,36,23.80
2018,06,18,00,37,23.80
2018,06,18,00,38,23.80
2018,06,18,00,39,23.80
2018,06,18,00,40,23.80
2018,06,18,00,41,23.80
2018,06,18,00,42,23.70
2018,06,18,00,43,23.70
2018,06,18,00,44,23.70
2018,06,18,00,45,23.70
2018,06,18,00,46,23.70
2018,06,18,00,47,23.70
2018,06,18,00,48,23.70
2018,06,18,00,49,23.60
2018,06,18,00,50,23.60
2018,06,18,00,51,23.60
2018,06,18,00,52,23.60
2018,06,18,00,53,23.60
2018,06,18,00,54,23.60
2018,06,18,00,55,23.60
2018,06,18,00,56,23.60
2018,06,18,00,57,23.60
2018,06,18,00,58,23.60
2018,06,18,00,59,23.70
2018,06,18,01,00,23.60
2018,06,18,01,01,23.60
2018,06,18,01,02,23.60
2018,06,18,01,03,23.60
2018,06,18,01,04,23.60
2018,06,18,01,05,23.60
2018,06,18,01,06,23.60
2018,06,18,01,07,23.60
2018,06,18,01,08,23.60
2018,06,18,01,09,23.60
2018,06,18,01,10,23.60
2018,06,18,01,11,23.60
2018,06,18,01,12,23.60
2018,06,18,01,13,23.60
2018,06,18,01,14,23.60
2018,06,18,01,15,23.60
2018,06,18,01,16,23.60
2018,06,18,01,17,23.60
2018,06,18,01,18,23.60
2018,06,18,01,19,23.50
2018,06,18,01,20,23.50
2018,06,18,01,21,23.50
2018,06,18,01,22,23.50
2018,06,18,01,23,23.50
2018,06,18,01,24,23.60
2018,06,18,01,25,23.60
2018,06,18,01,26,23.60
2018,06,18,01,27,23.60
2018,06,18,01,28,23.50
2018,06,18,01,29,23.50
2018,06,18,01,30,23.50
2018,06,18,01,31,23.40
2018,06,18,01,32,23.40
2018,06,18,01,33,23.40
2018,06,18,01,34,23.40
2018,06,18,01,35,23.40
2018,06,18,01,36,23.30
2018,06,18,01,37,23.30
2018,06,18,01,38,23.30
2018,06,18,01,39,23.30
2018,06,18,01,40,23.20
2018,06,18,01,41,23.20
2018,06,18,01,42,23.20
2018,06,18,01,43,23.20
2018,06,18,01,44,23.10
2018,06,18,01,45,23.20
2018,06,18,01,46,23.20
2018,06,18,01,47,23.20
2018,06,18,01,48,23.20
2018,06,18,01,49,23.20
2018,06,18,01,50,23.20
2018,06,18,01,51,23.10
2018,06,18,01,52,23.10
2018,06,18,01,53,23.10
2018,06,18,01,54,23.10
2018,06,18,01,55,23.10
2018,06,18,01,56,23.10
2018,06,18,01,57,23.10
2018,06,18,01,58,23.10
2018,06,18,01,59,23.00
2018,06,18,02,00,23.00
2018,06,18,02,01,23.00
2018,06,18,02,02,22.90
2018,06,18,02,03,22.90
2018,06,18,02,04,22.90
2018,06,18,02,05,22.90
2018,06,18,02,06,22.90
2018,06,18,02,07,22.90
2018,06,18,02,08,22.80
2018,06,18,02,09,22.90
2018,06,18,02,10,22.90
2018,06,18,02,11,22.90
2018,06,18,02,12,22.90
2018,06,18,02,13,22.90
2018,06,18,02,14,22.90
2018,06,18,02,15,22.90
2018,06,18,02,16,22.90
2018,06,18,02,17,22.80
2018,06,18,02,18,22.80
2018,06,18,02,19,22.80
2018,06,18,02,20,22.90
2018,06,18,02,21,22.90
2018,06,18,02,22,22.80
2018,06,18,02,23,22.80
2018,06,18,02,24,22.80
2018,06,18,02,25,22.80
2018,06,18,02,26,22.80
2018,06,18,02,27,22.80
2018,06,18,02,28,22.80
2018,06,18,02,29,22.70
2018,06,18,02,30,22.70
2018,06,18,02,31,22.70
2018,06,18,02,32,22.70
2018,06,18,02,33,22.60
2018,06,18,02,34,22.60
2018,06,18,02,35,22.60
2018,06,18,02,36,22.50
2018,06,18,02,37,22.50
2018,06,18,02,38,22.40
2018,06,18,02,39,22.40
2018,06,18,02,40,22.40
2018,06,18,02,41,22.40
2018,06,18,02,42,22.40
2018,06,18,02,43,22.40
2018,06,18,02,44,22.30
2018,06,18,02,45,22.30
2018,06,18,02,46,22.30
2018,06,18,02,47,22.30
2018,06,18,02,48,22.30
2018,06,18,02,49,22.30
2018,06,18,02,50,22.30
2018,06,18,02,51,22.20
2018,06,18,02,52,22.20
2018,06,18,02,53,22.20
2018,06,18,02,54,22.20
2018,06,18,02,55,22.10
2018,06,18,02,56,22.10
2018,06,18,02,57,22.10
2018,06,18,02,58,22.10
2018,06,18,02,59,22.10
2018,06,18,03,00,22.10
2018,06,18,03,01,22.10
2018,06,18,03,02,22.00
2018,06,18,03,03,22.00
2018,06,18,03,04,22.00
2018,06,18,03,05,21.90
2018,06,18,03,06,21.90
2018,06,18,03,07,21.90
2018,06,18,03,08,21.90
2018,06,18,03,09,21.80
2018,06,18,03,10,21.80
2018,06,18,03,11,21.80
2018,06,18,03,12,21.80
2018,06,18,03,13,21.90
2018,06,18,03,14,22.00
2018,06,18,03,15,22.10
2018,06,18,03,16,22.10
2018,06,18,03,17,22.10
2018,06,18,03,18,22.20
2018,06,18,03,19,22.20
2018,06,18,03,20,22.20
2018,06,18,03,21,22.20
2018,06,18,03,22,22.20
2018,06,18,03,23,22.20
2018,06,18,03,24,22.20
2018,06,18,03,25,22.20
2018,06,18,03,26,22.20
2018,06,18,03,27,22.10
2018,06,18,03,28,22.10
2018,06,18,03,29,22.00
2018,06,18,03,30,22.00
2018,06,18,03,31,21.90
2018,06,18,03,32,21.90
2018,06,18,03,33,21.90
2018,06,18,03,34,21.90
2018,06,18,03,35,21.90
2018,06,18,03,36,21.90
2018,06,18,03,37,21.90
2018,06,18,03,38,22.00
2018,06,18,03,39,22.00
2018,06,18,03,40,22.10
2018,06,18,03,41,22.10
2018,06,18,03,42,22.20
2018,06,18,03,43,22.20
2018,06,18,03,44,22.20
2018,06,18,03,45,22.20
2018,06,18,03,46,22.20
2018,06,18,03,47,22.20
2018,06,18,03,48,22.20
2018,06,18,03,49,22.10
2018,06,18,03,50,22.10
2018,06,18,03,51,22.00
2018,06,18,03,52,21.90
2018,06,18,03,53,21.80
2018,06,18,03,54,21.80
2018,06,18,03,55,21.70
2018,06,18,03,56,21.60
2018,06,18,03,57,21.60
2018,06,18,03,58,21.50
2018,06,18,03,59,21.50
2018,06,18,04,00,21.40
2018,06,18,04,01,21.30
2018,06,18,04,02,21.30
2018,06,18,04,03,21.30
2018,06,18,04,04,21.20
2018,06,18,04,05,21.20
2018,06,18,04,06,21.10
2018,06,18,04,07,21.10
2018,06,18,04,08,21.10
2018,06,18,04,09,21.10
2018,06,18,04,10,21.00
2018,06,18,04,11,21.00
2018,06,18,04,12,20.90
2018,06,18,04,13,20.90
2018,06,18,04,14,20.90
2018,06,18,04,15,20.90
2018,06,18,04,16,20.90
2018,06,18,04,17,20.90
2018,06,18,04,18,21.00
2018,06,18,04,19,21.00
2018,06,18,04,20,21.10
2018,06,18,04,21,21.10
2018,06,18,04,22,21.20
2018,06,18,04,23,21.20
2018,06,18,04,24,21.30
2018,06,18,04,25,21.30
2018,06,18,04,26,21.30
2018,06,18,04,27,21.40
2018,06,18,04,28,21.40
2018,06,18,04,29,21.40
2018,06,18,04,30,21.30
2018,06,18,04,31,21.30
2018,06,18,04,32,21.30
2018,06,18,04,33,21.20
2018,06,18,04,34,21.20
2018,06,18,04,35,21.20
2018,06,18,04,36,21.20
2018,06,18,04,37,21.10
2018,06,18,04,38,21.10
2018,06,18,04,39,21.10
2018,06,18,04,40,21.00
2018,06,18,04,41,21.00
2018,06,18,04,42,20.90
2018,06,18,04,43,20.90
2018,06,18,04,44,20.90
2018,06,18,04,45,20.80
2018,06,18,04,46,20.80
2018,06,18,04,47,20.80
2018,06,18,04,48,20.80
2018,06,18,04,49,20.80
2018,06,18,04,50,20.80
2018,06,18,04,51,20.90
2018,06,18,04,52,20.90
2018,06,18,04,53,21.00
2018,06,18,04,54,21.10
2018,06,18,04,55,21.10
2018,06,18,04,56,21.10
2018,06,18,04,57,21.10
2018,06,18,04,58,21.10
2018,06,18,04,59,21.20
2018,06,18,05,00,21.20
2018,06,18,05,01,21.20
2018,06,18,05,02,21.20
2018,06,18,05,03,21.20
2018,06,18,05,04,21.20
2018,06,18,05,05,21.20
2018,06,18,05,06,21.20
2018,06,18,05,07,21.20
2018,06,18,05,08,21.20
2018,06,18,05,09,21.20
2018,06,18,05,10,21.20
2018,06,18,05,11,21.20
2018,06,18,05,12,21.20
2018,06,18,05,13,21.20
2018,06,18,05,14,21.20
2018,06,18,05,15,21.20
2018,06,18,05,16,21.30
2018,06,18,05,17,21.30
2018,06,18,05,18,21.30
2018,06,18,05,19,21.30
2018,06,18,05,20,21.40
2018,06,18,05,21,21.40
2018,06,18,05,22,21.40
2018,06,18,05,23,21.40
2018,06,18,05,24,21.40
2018,06,18,05,25,21.50
2018,06,18,05,26,21.50
2018,06,18,05,27,21.60
2018,06,18,05,28,21.60
2018,06,18,05,29,21.60
2018,06,18,05,30,21.60
2018,06,18,05,31,21.70
2018,06,18,05,32,21.70
2018,06,18,05,33,21.80
2018,06,18,05,34,21.80
2018,06,18,05,35,21.80
2018,06,18,05,36,21.80
2018,06,18,05,37,21.80
2018,06,18,05,38,21.80
2018,06,18,05,39,21.80
2018,06,18,05,40,21.80
2018,06,18,05,41,21.80
2018,06,18,05,42,21.80
2018,06,18,05,43,21.80
2018,06,18,05,44,21.80
2018,06,18,05,45,21.80
2018,06,18,05,46,21.80
2018,06,18,05,47,21.80
2018,06,18,05,48,21.80
2018,06,18,05,49,21.80
2018,06,18,05,50,21.80
2018,06,18,05,51,21.80
2018,06,18,05,52,21.80
2018,06,18,05,53,21.80
2018,06,18,05,54,21.80
2018,06,18,05,55,21.80
2018,06,18,05,56,21.90
2018,06,18,05,57,21.90
2018,06,18,05,58,21.90
2018,06,18,05,59,21.90
2018,06,18,06,00,21.90
2018,06,18,06,01,21.90
2018,06,18,06,02,21.90
2018,06,18,06,03,21.90
2018,06,18,06,04,21.90
2018,06,18,06,05,21.90
2018,06,18,06,06,21.90
2018,06,18,06,07,21.90
2018,06,18,06,08,21.90
2018,06,18,06,09,22.00
2018,06,18,06,10,22.00
2018,06,18,06,11,22.10
2018,06,18,06,12,22.10
2018,06,18,06,13,22.10
2018,06,18,06,14,22.10
2018,06,18,06,15,22.10
2018,06,18,06,16,22.10
2018,06,18,06,17,22.10
2018,06,18,06,18,22.10
2018,06,18,06,19,22.10
2018,06,18,06,20,22.10
2018,06,18,06,21,22.10
2018,06,18,06,22,22.10
2018,06,18,06,23,22.10
2018,06,18,06,24,22.10
2018,06,18,06,25,22.10
2018,06,18,06,26,22.10
2018,06,18,06,27,22.10
2018,06,18,06,28,22.10
2018,06,18,06,29,22.10
2018,06,18,06,30,22.10
2018,06,18,06,31,22.10
2018,06,18,06,32,22.10
2018,06,18,06,33,22.10
2018,06,18,06,34,22.10
2018,06,18,06,35,22.10
2018,06,18,06,36,22.00
2018,06,18,06,37,22.10
2018,06,18,06,38,22.10
2018,06,18,06,39,22.10
2018,06,18,06,40,22.10
2018,06,18,06,41,22.10
2018,06,18,06,42,22.10
2018,06,18,06,43,22.10
2018,06,18,06,44,22.10
2018,06,18,06,45,22.10
2018,06,18,06,46,22.10
2018,06,18,06,47,22.10
2018,06,18,06,48,22.10
2018,06,18,06,49,22.10
2018,06,18,06,50,22.10
2018,06,18,06,51,22.10
2018,06,18,06,52,22.10
2018,06,18,06,53,22.10
2018,06,18,06,54,22.10
2018,06,18,06,55,22.10
2018,06,18,06,56,22.20
2018,06,18,06,57,22.20
2018,06,18,06,58,22.20
2018,06,18,06,59,22.20
2018,06,18,07,00,22.20
2018,06,18,07,01,22.20
2018,06,18,07,02,22.10
2018,06,18,07,03,22.10
2018,06,18,07,04,22.10
2018,06,18,07,05,22.10
2018,06,18,07,06,22.10
2018,06,18,07,07,22.10
2018,06,18,07,08,22.10
2018,06,18,07,09,22.10
2018,06,18,07,10,22.10
2018,06,18,07,11,22.10
2018,06,18,07,12,22.10
2018,06,18,07,13,22.10
2018,06,18,07,14,22.10
2018,06,18,07,15,22.10
2018,06,18,07,16,22.00
2018,06,18,07,17,22.00
2018,06,18,07,18,22.00
2018,06,18,07,19,22.00
2018,06,18,07,20,22.00
2018,06,18,07,21,22.00
2018,06,18,07,22,22.00
2018,06,18,07,23,22.10
2018,06,18,07,24,22.10
2018,06,18,07,25,22.10
2018,06,18,07,26,22.10
2018,06,18,07,27,22.10
2018,06,18,07,28,22.10
2018,06,18,07,29,22.10
2018,06,18,07,30,22.10
2018,06,18,07,31,22.10
2018,06,18,07,32,22.20
2018,06,18,07,33,22.20
2018,06,18,07,34,22.20
2018,06,18,07,35,22.20
2018,06,18,07,36,22.20
2018,06,18,07,37,22.20
2018,06,18,07,38,22.20
2018,06,18,07,39,22.30
2018,06,18,07,40,22.30
2018,06,18,07,41,22.30
2018,06,18,07,42,22.40
2018,06,18,07,43,22.40
2018,06,18,07,44,22.40
2018,06,18,07,45,22.50
2018,06,18,07,46,22.50
2018,06,18,07,47,22.50
2018,06,18,07,48,22.50
2018,06,18,07,49,22.60
2018,06,18,07,50,22.50
2018,06,18,07,51,22.50
2018,06,18,07,52,22.50
2018,06,18,07,53,22.50
2018,06,18,07,54,22.50
2018,06,18,07,55,22.50
2018,06,18,07,56,22.50
2018,06,18,07,57,22.50
2018,06,18,07,58,22.50
2018,06,18,07,59,22.60
2018,06,18,08,00,22.60
2018,06,18,08,01,22.60
2018,06,18,08,02,22.60
2018,06,18,08,03,22.60
2018,06,18,08,04,22.60
2018,06,18,08,05,22.70
2018,06,18,08,06,22.70
2018,06,18,08,07,22.80
2018,06,18,08,08,22.80
2018,06,18,08,09,22.80
2018,06,18,08,10,22.90
2018,06,18,08,11,22.90
2018,06,18,08,12,23.00
2018,06,18,08,13,23.00
2018,06,18,08,14,23.00
2018,06,18,08,15,23.00
2018,06,18,08,16,23.00
2018,06,18,08,17,22.90
2018,06,18,08,18,22.90
2018,06,18,08,19,22.90
2018,06,18,08,20,23.00
2018,06,18,08,21,23.00
2018,06,18,08,22,23.10
2018,06,18,08,23,23.10
2018,06,18,08,24,23.10
2018,06,18,08,25,23.20
2018,06,18,08,26,23.20
2018,06,18,08,27,23.20
2018,06,18,08,28,23.10
2018,06,18,08,29,23.10
2018,06,18,08,30,23.20
2018,06,18,08,31,23.20
2018,06,18,08,32,23.20
2018,06,18,08,33,23.20
2018,06,18,08,34,23.20
2018,06,18,08,35,23.30
2018,06,18,08,36,23.30
2018,06,18,08,37,23.30
2018,06,18,08,38,23.40
2018,06,18,08,39,23.40
2018,06,18,08,40,23.40
2018,06,18,08,41,23.40
2018,06,18,08,42,23.40
2018,06,18,08,43,23.40
2018,06,18,08,44,23.40
2018,06,18,08,45,23.50
2018,06,18,08,46,23.50
2018,06,18,08,47,23.50
2018,06,18,08,48,23.60
2018,06,18,08,49,23.60
2018,06,18,08,50,23.60
2018,06,18,08,51,23.70
2018,06,18,08,52,23.70
2018,06,18,08,53,23.70
2018,06,18,08,54,23.80
2018,06,18,08,55,23.80
2018,06,18,08,56,23.90
2018,06,18,08,57,24.00
2018,06,18,08,58,24.00
2018,06,18,08,59,24.00
2018,06,18,09,00,23.90
2018,06,18,09,01,23.60
2018,06,18,09,02,23.40
2018,06,18,09,03,23.10
2018,06,18,09,04,22.90
2018,06,18,09,05,22.60
2018,06,18,09,06,22.20
2018,06,18,09,07,21.80
2018,06,18,09,08,21.40
2018,06,18,09,09,21.10
2018,06,18,09,10,20.80
2018,06,18,09,11,20.60
2018,06,18,09,12,20.30
2018,06,18,09,13,20.10
2018,06,18,09,14,19.90
2018,06,18,09,15,19.70
2018,06,18,09,16,19.50
2018,06,18,09,17,19.40
2018,06,18,09,18,19.40
2018,06,18,09,19,19.50
2018,06,18,09,20,19.50
2018,06,18,09,21,19.50
2018,06,18,09,22,19.50
2018,06,18,09,23,19.40
2018,06,18,09,24,19.40
2018,06,18,09,25,19.40
2018,06,18,09,26,19.40
2018,06,18,09,27,19.40
2018,06,18,09,28,19.50
2018,06,18,09,29,19.50
2018,06,18,09,30,19.60
2018,06,18,09,31,19.70
2018,06,18,09,32,19.80
2018,06,18,09,33,19.80
2018,06,18,09,34,19.80
2018,06,18,09,35,19.80
2018,06,18,09,36,19.90
2018,06,18,09,37,19.90
2018,06,18,09,38,19.90
2018,06,18,09,39,19.90
2018,06,18,09,40,19.90
2018,06,18,09,41,19.90
2018,06,18,09,42,19.90
2018,06,18,09,43,20.00
2018,06,18,09,44,20.10
2018,06,18,09,45,20.20
2018,06,18,09,46,20.20
2018,06,18,09,47,20.30
2018,06,18,09,48,20.30
2018,06,18,09,49,20.40
2018,06,18,09,50,20.50
2018,06,18,09,51,20.50
2018,06,18,09,52,20.60
2018,06,18,09,53,20.60
2018,06,18,09,54,20.70
2018,06,18,09,55,20.70
2018,06,18,09,56,20.80
2018,06,18,09,57,20.80
2018,06,18,09,58,20.80
2018,06,18,09,59,20.90
2018,06,18,10,00,20.80
2018,06,18,10,01,20.80
2018,06,18,10,02,20.80
2018,06,18,10,03,20.80
2018,06,18,10,04,20.80
2018,06,18,10,05,20.80
2018,06,18,10,06,20.80
2018,06,18,10,07,20.90
2018,06,18,10,08,20.90
2018,06,18,10,09,21.10
2018,06,18,10,10,21.20
2018,06,18,10,11,21.30
2018,06,18,10,12,21.40
2018,06,18,10,13,21.60
2018,06,18,10,14,21.70
2018,06,18,10,15,21.80
2018,06,18,10,16,21.90
2018,06,18,10,17,22.00
2018,06,18,10,18,22.20
2018,06,18,10,19,22.30
2018,06,18,10,20,22.30
2018,06,18,10,21,22.40
2018,06,18,10,22,22.60
2018,06,18,10,23,22.70
2018,06,18,10,24,22.80
2018,06,18,10,25,22.90
2018,06,18,10,26,23.00
2018,06,18,10,27,23.10
2018,06,18,10,28,23.30
2018,06,18,10,29,23.40
2018,06,18,10,30,23.60
2018,06,18,10,31,23.70
2018,06,18,10,32,23.90
2018,06,18,10,33,24.00
2018,06,18,10,34,24.10
2018,06,18,10,35,24.30
2018,06,18,10,36,24.40
2018,06,18,10,37,24.50
2018,06,18,10,38,24.50
2018,06,18,10,39,24.50
2018,06,18,10,40,24.30
2018,06,18,10,41,24.20
2018,06,18,10,42,24.10
2018,06,18,10,43,24.00
2018,06,18,10,44,24.00
2018,06,18,10,45,23.90
2018,06,18,10,46,23.90
2018,06,18,10,47,23.90
2018,06,18,10,48,23.80
2018,06,18,10,49,23.60
2018,06,18,10,50,23.50
2018,06,18,10,51,23.30
2018,06,18,10,52,23.20
2018,06,18,10,53,23.10
2018,06,18,10,54,23.00
2018,06,18,10,55,22.90
2018,06,18,10,56,22.80
2018,06,18,10,57,22.80
2018,06,18,10,58,22.80
2018,06,18,10,59,22.80
2018,06,18,11,00,22.90
2018,06,18,11,01,22.80
2018,06,18,11,02,22.80
2018,06,18,11,03,22.80
2018,06,18,11,04,22.80
2018,06,18,11,05,22.80
2018,06,18,11,06,22.80
2018,06,18,11,07,22.80
2018,06,18,11,08,22.90
2018,06,18,11,09,23.00
2018,06,18,11,10,23.00
2018,06,18,11,11,23.10
2018,06,18,11,12,23.10
2018,06,18,11,13,23.10
2018,06,18,11,14,23.10
2018,06,18,11,15,23.10
2018,06,18,11,16,23.20
2018,06,18,11,17,23.30
2018,06,18,11,18,23.40
2018,06,18,11,19,23.50
2018,06,18,11,20,23.60
2018,06,18,11,21,23.60
2018,06,18,11,22,23.70
2018,06,18,11,23,23.80
2018,06,18,11,24,23.90
2018,06,18,11,25,24.00
2018,06,18,11,26,24.00
2018,06,18,11,27,24.00
2018,06,18,11,28,23.90
2018,06,18,11,29,23.80
2018,06,18,11,30,23.80
2018,06,18,11,31,23.80
2018,06,18,11,32,23.70
2018,06,18,11,33,23.70
2018,06,18,11,34,23.70
2018,06,18,11,35,23.70
2018,06,18,11,36,23.70
2018,06,18,11,37,23.60
2018,06,18,11,38,23.60
2018,06,18,11,39,23.60
2018,06,18,11,40,23.70
2018,06,18,11,41,23.70
2018,06,18,11,42,23.70
2018,06,18,11,43,23.80
2018,06,18,11,44,23.90
2018,06,18,11,45,23.90
2018,06,18,11,46,23.90
2018,06,18,11,47,23.80
2018,06,18,11,48,23.80
2018,06,18,11,49,23.70
2018,06,18,11,50,23.80
2018,06,18,11,51,23.70
2018,06,18,11,52,23.70
2018,06,18,11,53,23.70
2018,06,18,11,54,23.70
2018,06,18,11,55,23.80
2018,06,18,11,56,23.80
2018,06,18,11,57,23.90
2018,06,18,11,58,23.90
2018,06,18,11,59,23.90
2018,06,18,12,00,23.80
2018,06,18,12,01,23.80
2018,06,18,12,02,23.80
2018,06,18,12,03,23.80
2018,06,18,12,04,23.90
2018,06,18,12,05,23.90
2018,06,18,12,06,24.00
2018,06,18,12,07,24.10
2018,06,18,12,08,24.20
2018,06,18,12,09,24.20
2018,06,18,12,10,24.20
2018,06,18,12,11,24.30
2018,06,18,12,12,24.30
2018,06,18,12,13,24.40
2018,06,18,12,14,24.40
2018,06,18,12,15,24.50
2018,06,18,12,16,24.60
2018,06,18,12,17,24.70
2018,06,18,12,18,24.60
2018,06,18,12,19,24.60
2018,06,18,12,20,24.60
2018,06,18,12,21,24.50
2018,06,18,12,22,24.40
2018,06,18,12,23,24.30
2018,06,18,12,24,24.30
2018,06,18,12,25,24.20
2018,06,18,12,26,24.20
2018,06,18,12,27,24.20
2018,06,18,12,28,24.10
2018,06,18,12,29,24.10
2018,06,18,12,30,24.10
2018,06,18,12,31,24.10
2018,06,18,12,32,24.10
2018,06,18,12,33,24.10
2018,06,18,12,34,24.10
2018,06,18,12,35,24.10
2018,06,18,12,36,24.10
2018,06,18,12,37,24.10
2018,06,18,12,38,24.10
2018,06,18,12,39,24.10
2018,06,18,12,40,24.10
2018,06,18,12,41,24.10
2018,06,18,12,42,24.10
2018,06,18,12,43,24.20
2018,06,18,12,44,24.10
2018,06,18,12,45,24.10
2018,06,18,12,46,24.10
2018,06,18,12,47,24.10
2018,06,18,12,48,24.00
2018,06,18,12,49,24.00
2018,06,18,12,50,24.00
2018,06,18,12,51,24.10
2018,06,18,12,52,24.20
2018,06,18,12,53,24.20
2018,06,18,12,54,24.30
2018,06,18,12,55,24.30
2018,06,18,12,56,24.30
2018,06,18,12,57,24.20
2018,06,18,12,58,24.20
2018,06,18,12,59,24.20
2018,06,18,13,00,24.20
2018,06,18,13,01,24.30
2018,06,18,13,02,24.30
2018,06,18,13,03,24.30
2018,06,18,13,04,24.40
2018,06,18,13,05,24.40
2018,06,18,13,06,24.40
2018,06,18,13,07,24.40
2018,06,18,13,08,24.40
2018,06,18,13,09,24.40
2018,06,18,13,10,24.40
2018,06,18,13,11,24.50
2018,06,18,13,12,24.60
2018,06,18,13,13,24.60
2018,06,18,13,14,24.70
2018,06,18,13,15,24.70
2018,06,18,13,16,24.70
2018,06,18,13,17,24.70
2018,06,18,13,18,24.70
2018,06,18,13,19,24.70
2018,06,18,13,20,24.80
2018,06,18,13,21,24.90
2018,06,18,13,22,24.90
2018,06,18,13,23,25.00
2018,06,18,13,24,24.90
2018,06,18,13,25,24.80
2018,06,18,13,26,24.70
2018,06,18,13,27,24.70
2018,06,18,13,28,24.70
2018,06,18,13,29,24.80
2018,06,18,13,30,24.80
2018,06,18,13,31,24.90
2018,06,18,13,32,24.90
2018,06,18,13,33,25.00
2018,06,18,13,34,25.10
2018,06,18,13,35,25.10
2018,06,18,13,36,25.10
2018,06,18,13,37,25.00
2018,06,18,13,38,25.10
2018,06,18,13,39,25.10
2018,06,18,13,40,25.10
2018,06,18,13,41,25.20
2018,06,18,13,42,25.30
2018,06,18,13,43,25.30
2018,06,18,13,44,25.20
2018,06,18,13,45,25.10
2018,06,18,13,46,25.00
2018,06,18,13,47,24.90
2018,06,18,13,48,24.90
2018,06,18,13,49,24.90
2018,06,18,13,50,25.00
2018,06,18,13,51,25.10
2018,06,18,13,52,25.10
2018,06,18,13,53,25.00
2018,06,18,13,54,25.00
2018,06,18,13,55,25.10
2018,06,18,13,56,25.20
2018,06,18,13,57,25.40
2018,06,18,13,58,25.40
2018,06,18,13,59,25.40
2018,06,18,14,00,25.40
2018,06,18,14,01,25.40
2018,06,18,14,02,25.40
2018,06,18,14,03,25.40
2018,06,18,14,04,25.40
2018,06,18,14,05,25.40
2018,06,18,14,06,25.30
2018,06,18,14,07,25.30
2018,06,18,14,08,25.30
2018,06,18,14,09,25.30
2018,06,18,14,10,25.20
2018,06,18,14,11,25.30
2018,06,18,14,12,25.30
2018,06,18,14,13,25.50
2018,06,18,14,14,25.60
2018,06,18,14,15,25.70
2018,06,18,14,16,25.70
2018,06,18,14,17,25.90
2018,06,18,14,18,26.00
2018,06,18,14,19,26.10
2018,06,18,14,20,26.20
2018,06,18,14,21,26.20
2018,06,18,14,22,26.20
2018,06,18,14,23,26.20
2018,06,18,14,24,26.30
2018,06,18,14,25,26.30
2018,06,18,14,26,26.30
2018,06,18,14,27,26.30
2018,06,18,14,28,26.40
2018,06,18,14,29,26.40
2018,06,18,14,30,26.40
2018,06,18,14,31,26.40
2018,06,18,14,32,26.40
2018,06,18,14,33,26.50
2018,06,18,14,34,26.50
2018,06,18,14,35,26.40
2018,06,18,14,36,26.40
2018,06,18,14,37,26.40
2018,06,18,14,38,26.40
2018,06,18,14,39,26.30
2018,06,18,14,40,26.40
2018,06,18,14,41,26.40
2018,06,18,14,42,26.50
2018,06,18,14,43,26.60
2018,06,18,14,44,26.60
2018,06,18,14,45,26.70
2018,06,18,14,46,26.70
2018,06,18,14,47,26.80
2018,06,18,14,48,26.80
2018,06,18,14,49,26.80
2018,06,18,14,50,26.80
2018,06,18,14,51,26.80
2018,06,18,14,52,26.90
2018,06,18,14,53,27.00
2018,06,18,14,54,27.00
2018,06,18,14,55,27.10
2018,06,18,14,56,27.10
2018,06,18,14,57,27.10
2018,06,18,14,58,27.20
2018,06,18,14,59,27.20
2018,06,18,15,00,27.30
2018,06,18,15,01,27.30
2018,06,18,15,02,27.40
2018,06,18,15,03,27.30
2018,06,18,15,04,27.40
2018,06,18,15,05,27.40
2018,06,18,15,06,27.30
2018,06,18,15,07,27.30
2018,06,18,15,08,27.20
2018,06,18,15,09,27.20
2018,06,18,15,10,27.10
2018,06,18,15,11,27.10
2018,06,18,15,12,27.00
2018,06,18,15,13,26.90
2018,06,18,15,14,26.90
2018,06,18,15,15,26.90
2018,06,18,15,16,26.90
2018,06,18,15,17,26.90
2018,06,18,15,18,26.90
2018,06,18,15,19,27.00
2018,06,18,15,20,27.00
2018,06,18,15,21,27.10
2018,06,18,15,22,27.30
2018,06,18,15,23,27.40
2018,06,18,15,24,27.50
2018,06,18,15,25,27.60
2018,06,18,15,26,27.60
2018,06,18,15,27,27.60
2018,06,18,15,28,27.60
2018,06,18,15,29,27.60
2018,06,18,15,30,27.60
2018,06,18,15,31,27.70
2018,06,18,15,32,27.80
2018,06,18,15,33,27.90
2018,06,18,15,34,28.00
2018,06,18,15,35,28.10
2018,06,18,15,36,28.10
2018,06,18,15,37,28.10
2018,06,18,15,38,28.20
2018,06,18,15,39,28.10
2018,06,18,15,40,28.20
2018,06,18,15,41,28.20
2018,06,18,15,42,28.20
2018,06,18,15,43,28.20
2018,06,18,15,44,28.30
2018,06,18,15,45,28.40
2018,06,18,15,46,28.50
2018,06,18,15,47,28.60
2018,06,18,15,48,28.60
2018,06,18,15,49,28.60
2018,06,18,15,50,28.70
2018,06,18,15,51,28.70
2018,06,18,15,52,28.70
2018,06,18,15,53,28.60
2018,06,18,15,54,28.50
2018,06,18,15,55,28.40
2018,06,18,15,56,28.40
2018,06,18,15,57,28.40
2018,06,18,15,58,28.40
2018,06,18,15,59,28.40
2018,06,18,16,00,28.40
2018,06,18,16,01,28.50
2018,06,18,16,02,28.50
2018,06,18,16,03,28.50
2018,06,18,16,04,28.50
2018,06,18,16,05,28.60
2018,06,18,16,06,28.60
2018,06,18,16,07,28.60
2018,06,18,16,08,28.60
2018,06,18,16,09,28.70
2018,06,18,16,10,28.70
2018,06,18,16,11,28.70
2018,06,18,16,12,28.90
2018,06,18,16,13,29.00
2018,06,18,16,14,29.10
2018,06,18,16,15,29.20
2018,06,18,16,16,29.20
2018,06,18,16,17,29.30
2018,06,18,16,18,29.30
2018,06,18,16,19,29.30
2018,06,18,16,20,29.30
2018,06,18,16,21,29.30
2018,06,18,16,22,29.30
2018,06,18,16,23,29.20
2018,06,18,16,24,29.30
2018,06,18,16,25,29.30
2018,06,18,16,26,29.30
2018,06,18,16,27,29.30
2018,06,18,16,28,29.30
2018,06,18,16,29,29.40
2018,06,18,16,30,29.40
2018,06,18,16,31,29.40
2018,06,18,16,32,29.40
2018,06,18,16,33,29.40
2018,06,18,16,34,29.30
2018,06,18,16,35,29.30
2018,06,18,16,36,29.40
2018,06,18,16,37,29.40
2018,06,18,16,38,29.50
2018,06,18,16,39,29.50
2018,06,18,16,40,29.60
2018,06,18,16,41,29.70
2018,06,18,16,42,29.80
2018,06,18,16,43,29.90
2018,06,18,16,44,30.00
2018,06,18,16,45,30.10
2018,06,18,16,46,30.10
2018,06,18,16,47,30.20
2018,06,18,16,48,30.20
2018,06,18,16,49,30.30
2018,06,18,16,50,30.30
2018,06,18,16,51,30.40
2018,06,18,16,52,30.50
2018,06,18,16,53,30.60
2018,06,18,16,54,30.60
2018,06,18,16,55,30.70
2018,06,18,16,56,30.80
2018,06,18,16,57,30.80
2018,06,18,16,58,30.80
2018,06,18,16,59,30.70
2018,06,18,17,00,30.60
2018,06,18,17,01,30.60
2018,06,18,17,02,30.60
2018,06,18,17,03,30.60
2018,06,18,17,04,30.60
2018,06,18,17,05,30.70
2018,06,18,17,06,30.80
2018,06,18,17,07,30.80
2018,06,18,17,08,30.80
2018,06,18,17,09,30.80
2018,06,18,17,10,30.80
2018,06,18,17,11,30.70
2018,06,18,17,12,30.80
2018,06,18,17,13,30.80
2018,06,18,17,14,30.80
2018,06,18,17,15,30.90
2018,06,18,17,16,30.90
2018,06,18,17,17,30.90
2018,06,18,17,18,30.90
2018,06,18,17,19,30.90